Content
SEND FEEDBACK

Daily
Averages
Monthly
Summary
Germany

LUBECK, GERMANY


Home > Europe > Germany
Elevation: 56 feet     Latitude: 54 00N     Longitude: 011 12E

WEATHER
 
SELECT A DAY
Number of Records: 66,562;   Date Range: 7/3/96 - 12/18/14
 
SHARE

PRINT THIS DATA

[ ← Previous Day ]
WEATHER ALMANAC - FEBRUARY 6, 2013
[ Next Day → ]
[ °C ]   °F
Weather ElementAverageHighLow
Temperature34.3 °F35.6 °F (1:50 pm)32 °F (7:50 am)
Dewpoint32.9 °F35.6 °F (8:20 pm)28.4 °F (8:50 am)
Humidity94.9 %100 % (10:20 am)87 % (8:50 am)
Barometer29.43 in29.47 in (6:20 pm)29.39 in (7:50 am)
Wind Speed10 mph13.8 mph (9:50 am)
Weather ElementAverage
Visibility3.5 mi
Wind DirectionWSW (242.6 °)

Weather ElementTotal
Precipitation---
Heating Degree Days31.2 (Base 65)
Averaged from 27 records on February 6, 2013
WEATHER CONDITIONS BREAKOUT
WIND DIRECTION BREAKOUT
WEATHER BY HOUR - FEBRUARY 6, 2013
[ °C ]   °F
Local TimeTemperatureDewpointHumidityBarometerVisibilityWind DirectionWind SpeedGust SpeedPrecipitationEventsConditions
7:50 AM32.0 °F30.2 °F93 %29.39 in3.7 miWSW (240°)11.5 mphMostly Cloudy
8:20 AM32.0 °F30.2 °F93 %29.39 in4.3 miWSW (250°)12.7 mphMostly Cloudy
8:50 AM32.0 °F28.4 °F87 %29.39 in2.5 miWSW (240°)11.5 mphSnowLight Snow
9:20 AM32.0 °F30.2 °F93 %29.39 in1.6 miWSW (240°)12.7 mphSnowSnow
9:50 AM32.0 °F30.2 °F93 %29.39 in2.5 miSW (230°)13.8 mphSnowLight Snow
10:20 AM32.0 °F32.0 °F100 %29.42 in0.9 miWSW (240°)10.4 mphSnowSnow
10:50 AM32.0 °F32.0 °F100 %29.42 in2.2 miSW (230°)10.4 mphSnowSnow
11:20 AM32.0 °F32.0 °F100 %29.42 in2.5 miSW (230°)10.4 mphSnowLight Snow
11:50 AM33.8 °F32.0 °F93 %29.42 in3.7 miWSW (250°)10.4 mphSnowLight Snow
12:20 PM33.8 °F33.8 °F100 %29.42 in3.7 miWSW (250°)11.5 mphMostly Cloudy
12:50 PM33.8 °F33.8 °F100 %29.42 in3.1 miWSW (250°)9.2 mphMostly Cloudy
1:20 PM33.8 °F33.8 °F100 %29.42 in3.7 miWest (260°)10.4 mphMostly Cloudy
1:50 PM35.6 °F33.8 °F93 %29.42 in4.3 miWest (260°)11.5 mphMostly Cloudy
2:20 PM35.6 °F33.8 °F93 %29.42 in4.3 miWest (260°)9.2 mphMostly Cloudy
2:50 PM35.6 °F33.8 °F93 %29.44 in3.7 miWest (260°)10.4 mphMostly Cloudy
3:20 PM35.6 °F33.8 °F93 %29.44 in3.7 miWSW (240°)10.4 mphMostly Cloudy
3:50 PM35.6 °F33.8 °F93 %29.44 in4.3 miWSW (250°)9.2 mphMostly Cloudy
4:20 PM35.6 °F33.8 °F93 %29.44 in4.3 miWSW (250°)10.4 mphMostly Cloudy
4:50 PM35.6 °F33.8 °F93 %29.44 in3.7 miWSW (250°)8.1 mphMostly Cloudy
5:20 PM35.6 °F33.8 °F93 %29.44 in3.7 miWSW (240°)9.2 mphMostly Cloudy
5:50 PM35.6 °F33.8 °F93 %29.44 in3.7 miWSW (240°)6.9 mphMostly Cloudy
6:20 PM35.6 °F33.8 °F93 %29.47 in3.7 miSW (230°)8.1 mphRain-SnowLight Rain
6:50 PM35.6 °F33.8 °F93 %29.47 in5.0 miSW (230°)8.1 mphMostly Cloudy
7:20 PM35.6 °F33.8 °F93 %29.47 in6.2 miSW (220°)6.9 mphMostly Cloudy
7:50 PM35.6 °F33.8 °F93 %29.47 in3.7 miWSW (240°)9.2 mphRainLight Rain Showers
8:20 PM35.6 °F35.6 °F100 %29.47 in3.7 miSW (230°)6.9 mphMostly Cloudy
8:50 PM35.6 °F35.6 °F100 %29.47 in3.1 miWSW (240°)10.4 mphRainRain
Hourly data recorded from EDHL, located miles away from Lubeck, Germany







STORIES FROM OUR PARTNERS